078  
ASUS41 KBGM 201710  
RWRBGM  
 
REGIONAL WEATHER ROUNDUP  
NATIONAL WEATHER SERVICE BINGHAMTON NY  
100 PM EDT SUN MAY 20 2018  
 
NOTE: "FAIR" INDICATES FEW OR NO CLOUDS BELOW 12,000 FEET WITH NO  
SIGNIFICANT WEATHER AND/OR S TO VISIBILITY
.  
 
* = STATION(S) THAT DOES NOT REPORT PRECIPITATION, SUCH AS RAIN,  
SNOW, ETC, ALSO NO THUNDER OR FOG.
 
 
NYZ009-015>018-022>025-036-037-044>046-055>057-062-201800   
..CENTRAL NEW YORK
 
 
 
CITY SKY/WX TMP DP RH WIND PRES REMARKS
 
BINGHAMTON CLOUDY 60 56 86 NW12G21 30.02R  
CORTLAND CLOUDY 59 57 94 NW8 30.04R FOG  
DANSVILLE CLOUDY 63 55 75 NW7 30.07R  
ELMIRA CLOUDY 67 59 75 NW9 30.03R  
ITHACA LGT RAIN 58 57 97 NW13 30.06R FOG  
MONTICELLO NOT AVBL  
ONEONTA CLOUDY 61 N/A N/A CALM 30.00R  
PENN YAN CLOUDY 61 57 87 NW8 30.07R FOG  
ROME CLOUDY 62 59 90 W10 30.00R  
SIDNEY CLOUDY 64 61 88 NW7 30.00R  
SYRACUSE CLOUDY 62 59 90 W12 30.03R  

 
 
PAZ038>040-043-044-047-048-072-201800   
..NORTHEAST PENNSYLVANIA
 
 
 
CITY SKY/WX TMP DP RH WIND PRES REMARKS
 
HAZLETON CLOUDY 72 63 73 SW7 30.05S  
SCRANTON CLOUDY 69 63 81 SW9 29.98F  

 

 
KEY  
WCI = WIND CHILL INDEX  
VSB = VISIBILITY  
HX = HEAT INDEX  

 
 
 
CLICK HERE TO GO TO PREVIOUS BULLETINS.

The Nexlab NY Page
The Nexlab PA Page Main Text Page